Location: Noulens
(43.8099°N, 0.1664°E)
Time: 03:26:33
(UTC+00:00)

Cosmos 2297 Rocket - Pass Details

Date: 07 June 2020
Orbit: 841 x 842 km, 71.0° (Epoch: 09 July)

Event Time Altitude Azimuth Distance (km) Brightness Sun altitude
Rises 01:08:06 0° 320° (NW) 3,404 5.8 -21.5°
Reaches altitude 10° 01:11:16 10° 302° (WNW) 2,464 4.8 -21.3°
Maximum altitude 01:14:58 18° 261° (W) 1,940 3.8 -21.1°
Enters shadow 01:15:04 18° 260° (W) 1,941 3.8 -21.1°
